Location: Mount Cross
(36.6390°N, 79.4878°W)
Time: 10:45:26
(UTC+00:00)

deb Explorer IX - Visible Passes

Search period start: 30 March 2023 00:00
Search period end: 09 April 2023 00:00
Orbit: 536 x 1029 km, 38.8° (Epoch: 28 March)

Date Brightness Start Highest point End Pass type
(mag) Time Alt. Az. Time Alt. Az. Time Alt. Az.
30 Mar ? 09:20:37 27° S 09:21:53 31° SSE 09:25:47 10° E visible
31 Mar ? 08:47:08 27° SE 08:47:08 27° SE 08:50:30 10° E visible
31 Mar ? 10:27:36 10° WSW 10:32:19 84° SSE 10:36:35 10° ENE visible
01 Apr ? 08:13:32 18° ESE 08:13:32 18° ESE 08:15:10 10° E visible
01 Apr ? 09:53:59 23° WSW 09:56:59 77° SSE 10:01:21 10° ENE visible
02 Apr ? 09:20:17 47° SW 09:21:35 70° SSE 09:26:04 10° ENE visible
03 Apr ? 08:46:30 62° SE 08:46:30 62° SE 08:50:44 10° ENE visible
03 Apr ? 10:27:14 10° W 10:32:08 68° N 10:36:26 10° ENE visible
04 Apr ? 08:12:38 33° E 08:12:38 33° E 08:15:21 10° E visible
04 Apr ? 09:53:04 19° W 09:56:36 71° N 10:01:04 10° ENE visible
05 Apr ? 07:38:41 17° E 07:38:41 17° E 07:39:53 10° E visible
05 Apr ? 09:19:08 39° W 09:21:00 74° N 09:25:38 10° ENE visible
06 Apr ? 08:45:08 76° NW 08:45:20 78° N 08:50:10 10° ENE visible
06 Apr ? 10:26:31 10° WNW 10:31:34 72° N 10:35:58 10° E visible
07 Apr ? 08:11:04 49° ENE 08:11:04 49° ENE 08:14:37 10° ENE visible
07 Apr ? 09:51:30 15° WNW 09:55:52 70° N 10:00:25 10° E visible
08 Apr ? 07:36:59 25° ENE 07:36:59 25° ENE 07:39:01 10° ENE visible
08 Apr ? 09:17:24 29° WNW 09:20:07 69° N 09:24:50 10° E visible
